TimeCDT,TemperatureF,Dew PointF,Humidity,Sea Level PressureIn,VisibilityMPH,Wind Direction,Wind SpeedMPH,Gust SpeedMPH,PrecipitationIn,Events,Conditions,WindDirDegrees,DateUTC
12:53 AM,70.0,63.0,78,29.83,10.0,SE,9.2,-,N/A,,Clear,130,2013-05-26 05:53:00
1:53 AM,68.0,63.0,84,29.84,10.0,SSE,10.4,-,N/A,,Clear,150,2013-05-26 06:53:00
2:53 AM,68.0,63.0,84,29.82,10.0,SE,9.2,-,N/A,,Clear,140,2013-05-26 07:53:00
3:53 AM,66.9,63.0,87,29.81,10.0,SE,11.5,-,N/A,,Clear,140,2013-05-26 08:53:00
4:53 AM,64.9,63.0,93,29.80,10.0,SE,9.2,-,N/A,,Clear,140,2013-05-26 09:53:00
5:53 AM,64.0,62.1,93,29.81,8.0,ESE,6.9,-,N/A,,Clear,110,2013-05-26 10:53:00
6:53 AM,64.0,62.1,93,29.83,5.0,ESE,8.1,-,N/A,,Clear,120,2013-05-26 11:53:00
7:47 AM,66.2,62.6,88,29.88,7.0,ESE,6.9,-,N/A,,Mostly Cloudy,110,2013-05-26 12:47:00
7:53 AM,66.0,63.0,90,29.85,7.0,ESE,9.2,-,N/A,,Mostly Cloudy,110,2013-05-26 12:53:00
8:07 AM,66.2,62.6,88,29.88,8.0,East,9.2,-,N/A,,Mostly Cloudy,100,2013-05-26 13:07:00
8:18 AM,66.2,62.6,88,29.88,9.0,ESE,9.2,-,N/A,,Overcast,110,2013-05-26 13:18:00
8:53 AM,66.9,63.0,87,29.85,9.0,ESE,11.5,-,N/A,,Overcast,110,2013-05-26 13:53:00
9:53 AM,68.0,64.0,87,29.87,10.0,ESE,10.4,-,N/A,,Overcast,120,2013-05-26 14:53:00
10:39 AM,69.8,64.4,83,29.88,10.0,SE,11.5,-,N/A,,Overcast,130,2013-05-26 15:39:00
10:53 AM,71.1,64.0,78,29.85,10.0,SE,11.5,-,N/A,,Overcast,130,2013-05-26 15:53:00
11:00 AM,71.6,64.4,78,29.88,10.0,ESE,13.8,20.7,N/A,,Overcast,120,2013-05-26 16:00:00
11:53 AM,73.0,64.0,73,29.85,10.0,SE,13.8,25.3,N/A,,Overcast,140,2013-05-26 16:53:00
12:53 PM,75.9,64.0,67,29.83,10.0,SSE,15.0,19.6,N/A,,Overcast,150,2013-05-26 17:53:00
1:53 PM,75.0,64.9,71,29.84,10.0,ESE,12.7,-,N/A,,Overcast,120,2013-05-26 18:53:00
2:17 PM,78.8,64.4,61,29.86,10.0,SE,13.8,-,N/A,,Mostly Cloudy,130,2013-05-26 19:17:00
2:53 PM,77.0,64.9,66,29.80,10.0,SE,13.8,20.7,N/A,,Mostly Cloudy,130,2013-05-26 19:53:00
3:53 PM,75.9,66.0,71,29.80,10.0,ESE,12.7,-,N/A,,Mostly Cloudy,120,2013-05-26 20:53:00
4:17 PM,75.2,66.2,73,29.83,10.0,ESE,10.4,-,N/A,,Overcast,110,2013-05-26 21:17:00
4:32 PM,75.2,66.2,73,29.83,10.0,SE,10.4,-,N/A,,Overcast,130,2013-05-26 21:32:00
4:40 PM,78.8,68.0,69,29.82,10.0,ESE,12.7,20.7,N/A,,Mostly Cloudy,120,2013-05-26 21:40:00
4:53 PM,78.1,68.0,71,29.78,10.0,ESE,16.1,-,N/A,,Scattered Clouds,110,2013-05-26 21:53:00
5:53 PM,78.1,68.0,71,29.77,10.0,ESE,17.3,21.9,N/A,,Scattered Clouds,120,2013-05-26 22:53:00
6:53 PM,78.1,66.9,68,29.75,10.0,ESE,10.4,-,N/A,,Scattered Clouds,110,2013-05-26 23:53:00
7:53 PM,75.9,68.0,76,29.75,10.0,East,13.8,-,N/A,,Mostly Cloudy,90,2013-05-27 00:53:00
8:44 PM,73.4,66.2,78,29.77,10.0,NE,18.4,27.6,N/A,Thunderstorm,Mostly Cloudy,40,2013-05-27 01:44:00
8:53 PM,71.1,64.9,81,29.75,7.0,ENE,12.7,19.6,N/A,Thunderstorm,Mostly Cloudy,70,2013-05-27 01:53:00
9:32 PM,69.8,66.2,88,29.74,5.0,ESE,16.1,21.9,0.00,Rain-Thunderstorm,Light Thunderstorms and Rain,120,2013-05-27 02:32:00
9:50 PM,68.0,66.2,94,29.72,4.0,ESE,13.8,25.3,0.04,Rain-Thunderstorm,Light Rain,120,2013-05-27 02:50:00
9:53 PM,68.0,66.0,93,29.70,4.0,SE,10.4,19.6,0.05,Rain-Thunderstorm,Light Rain,130,2013-05-27 02:53:00
10:12 PM,68.0,66.2,94,29.74,5.0,East,13.8,-,0.01,Rain,Light Rain,80,2013-05-27 03:12:00
10:19 PM,68.0,64.4,88,29.75,5.0,ENE,11.5,24.2,0.01,,Mostly Cloudy,60,2013-05-27 03:19:00
10:53 PM,68.0,66.0,93,29.73,5.0,ESE,11.5,-,0.01,,Partly Cloudy,110,2013-05-27 03:53:00
11:11 PM,68.0,66.2,94,29.81,5.0,NNW,21.9,32.2,N/A,Thunderstorm,Mostly Cloudy,330,2013-05-27 04:11:00
11:20 PM,64.4,60.8,88,29.83,9.0,NE,21.9,36.8,N/A,Thunderstorm,Mostly Cloudy,40,2013-05-27 04:20:00
11:25 PM,64.4,60.8,88,29.83,10.0,NE,19.6,28.8,N/A,Thunderstorm,Thunderstorm,40,2013-05-27 04:25:00
11:32 PM,64.4,60.8,88,29.87,10.0,North,13.8,28.8,N/A,Thunderstorm,Thunderstorm,10,2013-05-27 04:32:00
11:53 PM,62.1,55.9,80,29.83,7.0,North,10.4,19.6,0.05,Rain-Thunderstorm,Thunderstorms and Rain,360,2013-05-27 04:53:00